Location: Gälforsberget
(66.6500°N, 22.4167°E)
Time: 15:25:40
(UTC+00:00)

Cosmos 2151 Rocket - Pass Details

Date: 11 April 2026
Orbit: 611 x 636 km, 82.5° (Epoch: 17 May)

Event Time Altitude Azimuth Distance (km) Brightness Sun altitude
Exits shadow 23:47:00 17° 232° (SW) 1,608 5.2 -13.5°
Maximum altitude 23:50:13 46° 300° (WNW) 847 4.3 -13.4°
Drops below altitude 10° 23:54:29 10° 15° (NNE) 1,996 7.6 -13.2°
Sets 23:56:48 0° 21° (NNE) 2,902 9.1 -13.1°
